N8IR-11 Weather Reports


time (UTC)temp
C
wind
direction
speed
KPH
gust
KPH
rain 1hr
cm
rain 24hr
cm
rain mn
cm
humidity
%
barometer
mb
20260506180210 13 320 1.6 9.7 0.00 0.71 0.13 43 1011.7
20260506175710 13 341 12.9 17.7 0.00 0.71 0.13 41 1011.5
20260506175210 13 312 4.8 14.5 0.00 0.71 0.13 42 1011.7
20260506174710 13 276 3.2 8.0 0.00 0.71 0.13 42 1011.6
20260506174210 13 337 3.2 6.4 0.00 0.71 0.13 43 1011.7
20260506173712 13 328 6.4 12.9 0.00 0.71 0.13 43 1011.7
20260506173212 13 248 9.7 16.1 0.00 0.71 0.13 45 1011.8
20260506172712 13 329 6.4 16.1 0.00 0.71 0.13 44 1011.7
20260506172212 13 336 14.5 20.9 0.00 0.71 0.13 43 1011.7
20260506171712 13 343 6.4 14.5 0.00 0.71 0.13 43 1011.8
20260506171212 13 355 11.3 20.9 0.00 0.71 0.13 44 1011.8
20260506170713 13 246 11.3 16.1 0.00 0.71 0.13 46 1011.8
20260506170232 13 240 4.8 11.3 0.00 0.71 0.13 46 1011.9
20260506165732 13 251 4.8 11.3 0.00 0.71 0.13 47 1012.0
20260506165212 13 339 4.8 9.7 0.00 0.71 0.13 46 1011.9
20260506164712 14 254 4.8 14.5 0.00 0.71 0.13 48 1011.9
20260506164212 14 234 9.7 22.5 0.00 0.71 0.13 48 1012.1
20260506163732 14 252 4.8 12.9 0.00 0.71 0.13 46 1012.2
20260506163212 14 277 3.2 9.7 0.00 0.71 0.13 49 1012.1
20260506162712 14 349 9.7 20.9 0.00 0.71 0.13 48 1012.1
20260506162212 13 255 8.0 16.1 0.00 0.71 0.13 49 1012.1
20260506161732 13 279 4.8 9.7 0.00 0.71 0.13 50 1012.0
20260506161212 13 244 9.7 16.1 0.00 0.71 0.13 50 1011.9
20260506160732 13 192 1.6 12.9 0.00 0.71 0.13 50 1012.0
20260506160212 13 339 9.7 17.7 0.00 0.71 0.13 47 1011.9
20260506155712 13 328 4.8 14.5 0.00 0.71 0.13 49 1011.9
20260506155212 13 335 8.0 14.5 0.00 0.71 0.13 51 1011.9
20260506154752 12 303 4.8 14.5 0.00 0.71 0.13 50 1011.9
20260506154212 12 323 8.0 14.5 0.00 0.71 0.13 52 1011.9
20260506153712 12 313 6.4 12.9 0.00 0.71 0.13 49 1011.9
20260506153212 12 332 6.4 9.7 0.00 0.71 0.13 48 1011.6
20260506152732 12 331 4.8 12.9 0.00 0.71 0.13 50 1011.7
20260506152212 12 331 4.8 11.3 0.00 0.71 0.13 49 1011.6
20260506151712 12 277 4.8 9.7 0.00 0.71 0.13 52 1011.6
20260506151212 12 344 3.2 6.4 0.00 0.71 0.13 54 1011.4
20260506150712 12 340 4.8 9.7 0.00 0.71 0.13 50 1011.4
20260506150212 12 326 3.2 12.9 0.00 0.71 0.13 50 1011.5
20260506145712 11 344 3.2 14.5 0.00 0.71 0.13 52 1011.4
20260506145212 11 307 8.0 16.1 0.00 0.71 0.13 51 1011.3
20260506144712 11 328 6.4 16.1 0.00 0.71 0.13 52 1011.5
20260506144212 11 330 12.9 17.7 0.00 0.71 0.13 51 1011.4
20260506143752 11 341 11.3 17.7 0.00 0.71 0.13 52 1011.4
20260506143212 11 30 1.6 4.8 0.00 0.71 0.13 54 1011.0
20260506142732 11 347 8.0 16.1 0.00 0.71 0.13 55 1011.3
20260506142212 11 334 9.7 17.7 0.00 0.71 0.13 50 1011.2
20260506141712 11 335 11.3 19.3 0.00 0.71 0.13 52 1011.2
20260506141212 11 340 9.7 16.1 0.00 0.71 0.13 54 1011.2
20260506140732 11 324 12.9 19.3 0.00 0.71 0.13 55 1011.3
20260506140212 11 327 6.4 12.9 0.00 0.71 0.13 59 1011.3
20260506135712 11 322 8.0 14.5 0.00 0.71 0.13 60 1011.4
20260506135212 10 339 4.8 12.9 0.00 0.71 0.13 58 1011.2
20260506134712 10 331 4.8 11.3 0.00 0.71 0.13 63 1011.3
20260506134212 10 301 4.8 11.3 0.00 0.71 0.13 63 1011.2
20260506133712 10 342 3.2 6.4 0.00 0.71 0.13 67 1011.3
20260506133212 10 335 9.7 19.3 0.00 0.71 0.13 66 1011.1
20260506132712 9 337 6.4 11.3 0.00 0.71 0.13 70 1011.0
20260506132212 9 328 4.8 6.4 0.00 0.71 0.13 72 1010.9
20260506131712 9 353 9.7 16.1 0.00 0.71 0.13 74 1010.8
20260506131212 8 353 4.8 14.5 0.00 0.71 0.13 79 1010.8
20260506130712 8 4 3.2 6.4 0.00 0.71 0.13 81 1010.8
20260506130212 8 345 3.2 9.7 0.00 0.71 0.13 82 1010.7
20260506125712 8 332 8.0 16.1 0.00 0.71 0.13 85 1010.5
20260506125212 7 351 3.2 8.0 0.00 0.71 0.13 87 1010.5
20260506124712 7 324 8.0 16.1 0.00 0.71 0.13 89 1010.6
20260506124212 7 329 6.4 12.9 0.00 0.71 0.13 92 1010.5
20260506123712 7 338 4.8 8.0 0.00 0.71 0.13 93 1010.6
20260506123232 7 312 4.8 8.0 0.00 0.71 0.13 94 1010.6
20260506122732 6 328 4.8 9.7 0.00 0.71 0.13 94 1010.4
20260506122212 6 336 4.8 8.0 0.00 0.71 0.13 94 1010.2
20260506121712 6 306 3.2 9.7 0.00 0.71 0.13 94 1010.2
20260506121211 6 311 1.6 4.8 0.00 0.71 0.13 94 1010.1
20260506120712 6 331 0.0 3.2 0.00 0.71 0.13 94 1009.9
20260506120212 6 0.0 0.0 0.00 0.71 0.13 94 1009.9
20260506115712 6 0.0 0.0 0.00 0.71 0.13 95 1009.8
20260506115212 6 0.0 3.2 0.00 0.71 0.13 95 1009.6
20260506114712 6 312 0.0 3.2 0.00 0.71 0.13 94 1009.6
20260506114212 6 252 1.6 4.8 0.00 0.71 0.13 94 1009.6
20260506113711 6 0.0 1.6 0.00 0.71 0.13 94 1009.4
20260506113211 6 0.0 1.6 0.00 0.71 0.13 94 1009.4
20260506112712 6 0.0 0.0 0.00 0.71 0.13 94 1009.5
20260506112212 6 0.0 0.0 0.00 0.71 0.13 94 1009.4
20260506111712 6 285 0.0 1.6 0.00 0.71 0.13 94 1009.4
20260506111212 6 308 0.0 1.6 0.00 0.71 0.13 94 1009.2
20260506110712 6 0.0 0.0 0.00 0.71 0.13 94 1009.3
20260506110212 6 0.0 1.6 0.00 0.71 0.13 94 1009.1
20260506105712 6 240 0.0 3.2 0.00 0.71 0.13 94 1009.0
20260506105211 6 242 0.0 1.6 0.00 0.71 0.13 94 1008.7
20260506104711 6 0.0 3.2 0.00 0.71 0.13 94 1008.9
20260506104211 6 259 0.0 1.6 0.00 0.71 0.13 94 1008.8
20260506103711 6 266 0.0 1.6 0.00 0.71 0.13 94 1008.7
20260506103232 6 0.0 4.8 0.00 0.71 0.13 94 1008.8
20260506102712 6 240 0.0 1.6 0.00 0.71 0.13 94 1008.6
20260506102211 6 0.0 0.0 0.00 0.71 0.13 94 1008.3
20260506101712 6 0.0 0.0 0.00 0.71 0.13 94 1008.4
20260506101211 6 200 0.0 1.6 0.00 0.71 0.13 94 1008.4
20260506100711 6 215 4.8 6.4 0.00 0.71 0.13 94 1008.6
20260506100231 6 237 3.2 6.4 0.00 0.71 0.13 94 1008.7
20260506095711 6 237 3.2 4.8 0.00 0.71 0.13 94 1008.8
20260506095212 6 225 0.0 4.8 0.00 0.71 0.13 94 1008.7
20260506094712 6 240 3.2 6.4 0.00 0.71 0.13 94 1008.5
20260506094231 6 228 3.2 4.8 0.00 0.71 0.13 94 1008.3
20260506093711 6 231 1.6 4.8 0.00 0.71 0.13 94 1008.2
20260506093211 6 233 3.2 6.4 0.00 0.71 0.13 94 1008.2
20260506092711 6 250 1.6 4.8 0.00 0.71 0.13 94 1008.2
20260506092211 6 242 1.6 4.8 0.00 0.71 0.13 94 1008.4
20260506091712 6 230 0.0 1.6 0.00 0.71 0.13 94 1008.2
20260506091211 6 219 0.0 3.2 0.00 0.71 0.13 94 1008.2
20260506090711 6 219 1.6 3.2 0.00 0.71 0.13 94 1008.4
20260506090211 6 215 3.2 4.8 0.00 0.71 0.13 94 1008.6
20260506085711 6 0.0 4.8 0.00 0.71 0.13 94 1008.7
20260506085211 6 195 3.2 4.8 0.00 0.71 0.13 94 1008.6
20260506084711 6 191 3.2 6.4 0.00 0.71 0.13 94 1008.4
20260506084211 6 0.0 1.6 0.00 0.71 0.13 94 1008.2
20260506083711 6 0.0 0.0 0.00 0.71 0.13 94 1008.2
20260506083211 6 237 0.0 1.6 0.00 0.71 0.13 94 1008.2
20260506082711 6 232 1.6 3.2 0.00 0.71 0.13 94 1008.2
20260506082212 6 235 0.0 3.2 0.00 0.71 0.13 94 1008.2
20260506081711 6 242 0.0 3.2 0.00 0.71 0.13 94 1008.3
20260506081211 6 234 4.8 6.4 0.00 0.71 0.13 94 1008.5
20260506080711 6 206 1.6 8.0 0.00 0.71 0.13 94 1008.3
20260506080211 6 202 1.6 4.8 0.00 0.71 0.13 94 1008.2
20260506073211 6 0.0 0.0 0.05 0.71 0.13 94 1008.0
20260506072711 6 161 0.0 1.6 0.05 0.71 0.13 94 1008.2
20260506072211 6 213 0.0 3.2 0.05 0.71 0.13 94 1008.3
20260506071711 6 195 4.8 6.4 0.05 0.71 0.13 94 1008.2
20260506071211 7 196 1.6 4.8 0.08 0.71 0.13 94 1008.4
20260506070711 7 215 0.0 4.8 0.08 0.71 0.13 94 1008.6
20260506070211 7 227 3.2 4.8 0.10 0.71 0.13 94 1008.6
20260506062231 7 0.0 0.0 0.05 0.66 0.08 94 1008.5
20260506061711 7 231 1.6 3.2 0.05 0.66 0.08 94 1008.7
20260506061211 7 219 0.0 1.6 0.03 0.64 0.05 94 1009.0
20260506060711 7 243 1.6 4.8 0.03 0.64 0.05 94 1008.9
20260506060211 7 0.0 1.6 0.00 0.61 0.03 94 1008.9
20260506051211 7 0.0 0.0 0.00 0.61 0.03 94 1008.7
20260506050711 7 0.0 0.0 0.03 0.61 0.03 94 1008.8
20260506050211 7 0.0 0.0 0.03 0.61 0.03 94 1008.8
20260506044751 7 0.0 0.0 0.03 0.61 0.03 94 1008.8
20260506044211 7 0.0 0.0 0.03 0.61 0.03 94 1008.6
20260506043711 7 0.0 0.0 0.03 0.61 0.03 94 1008.6
20260506043211 7 0.0 0.0 0.03 0.61 0.03 94 1008.6
20260506042711 7 0.0 0.0 0.03 0.61 0.03 93 1008.6
20260506042211 7 0.0 0.0 0.03 0.61 0.03 93 1008.5
20260506041731 7 0.0 0.0 0.03 0.61 0.03 94 1008.6
20260506041211 7 0.0 0.0 0.03 0.61 0.03 94 1008.6
20260506040731 7 0.0 0.0 0.00 0.58 0.00 94 1008.5
20260506040211 7 0.0 0.0 0.00 0.58 0.00 93 1008.7
20260506035711 7 0.0 0.0 0.00 0.58 0.58 94 1008.6
20260506035231 7 0.0 0.0 0.00 0.58 0.58 94 1008.6
20260506034731 7 0.0 0.0 0.00 0.58 0.58 94 1008.5
20260506034211 7 310 0.0 1.6 0.00 0.58 0.58 93 1008.5
20260506033711 7 0.0 0.0 0.00 0.58 0.58 93 1008.4
20260506033211 7 0.0 0.0 0.00 0.58 0.58 93 1008.4
20260506032711 7 0.0 0.0 0.00 0.58 0.58 93 1008.2
20260506032211 7 0.0 0.0 0.03 0.58 0.58 93 1008.3
20260506031711 7 0.0 0.0 0.03 0.58 0.58 93 1008.3
20260506031211 7 0.0 0.0 0.03 0.58 0.58 93 1008.4
20260506030711 7 0.0 0.0 0.03 0.58 0.58 93 1008.3
20260506030211 7 317 0.0 1.6 0.03 0.58 0.58 93 1008.2
20260506025714 7 0.0 0.0 0.03 0.58 0.58 93 1008.3
20260506025211 7 0.0 0.0 0.05 0.58 0.58 93 1008.4
20260506024713 7 0.0 0.0 0.05 0.58 0.58 93 1008.4
20260506024211 7 0.0 0.0 0.05 0.58 0.58 93 1008.4
20260506023711 7 0.0 0.0 0.08 0.58 0.58 93 1008.5
20260506023211 7 328 1.6 3.2 0.08 0.58 0.58 92 1008.5
20260506022712 8 274 0.0 1.6 0.08 0.58 0.58 93 1008.7
20260506022211 8 311 1.6 6.4 0.05 0.56 0.56 93 1008.5
20260506021731 8 331 3.2 9.7 0.05 0.56 0.56 93 1008.4
20260506021211 9 304 1.6 4.8 0.08 0.56 0.56 93 1008.5
20260506020711 9 0.0 1.6 0.08 0.56 0.56 93 1008.5
20260506020211 9 224 1.6 4.8 0.08 0.56 0.56 93 1008.6
20260506015731 9 229 1.6 4.8 0.08 0.56 0.56 93 1008.5
20260506015231 9 0.0 0.0 0.05 0.53 0.53 93 1008.3
20260506014711 9 256 0.0 4.8 0.08 0.53 0.53 93 1008.4
20260506014211 9 0.0 4.8 0.08 0.53 0.53 93 1008.4
20260506013751 9 198 3.2 4.8 0.05 0.51 0.51 93 1008.2
20260506013211 9 212 1.6 1.6 0.05 0.51 0.51 93 1008.2
20260506012711 9 211 1.6 3.2 0.05 0.51 0.51 93 1008.0
20260506012211 9 207 3.2 4.8 0.05 0.51 0.51 93 1007.9
20260506011711 9 208 1.6 6.4 0.05 0.51 0.51 93 1007.8
20260506011211 9 192 4.8 6.4 0.03 0.48 0.48 93 1007.7
20260506010711 9 211 0.0 1.6 0.03 0.48 0.48 93 1007.7
20260506010211 9 213 1.6 8.0 0.03 0.48 0.48 93 1007.7
20260506005711 9 215 0.0 1.6 0.05 0.48 0.48 93 1007.6
20260506005211 10 227 1.6 3.2 0.05 0.48 0.48 93 1007.6
20260506004731 10 254 0.0 1.6 0.03 0.46 0.46 93 1007.6
20260506004211 10 214 3.2 6.4 0.03 0.46 0.46 93 1007.6
20260506003711 10 254 1.6 3.2 0.05 0.46 0.46 93 1007.6
20260506003211 10 0.0 0.0 0.05 0.46 0.46 93 1007.6
20260506002711 10 0.0 1.6 0.05 0.46 0.46 93 1007.5
20260506002231 10 0.0 0.0 0.05 0.46 0.46 93 1007.6
20260506001731 10 197 1.6 4.8 0.05 0.46 0.46 93 1007.6
20260506001211 10 197 1.6 4.8 0.08 0.46 0.46 93 1007.5
20260506000711 10 197 0.0 4.8 0.08 0.46 0.46 93 1007.6
20260506000212 10 216 1.6 3.2 0.08 0.46 0.46 92 1007.5
20260505235731 10 175 0.0 3.2 0.05 0.43 0.43 93 1007.5
20260505235231 10 200 0.0 3.2 0.05 0.43 0.43 92 1007.5
20260505234711 10 182 1.6 6.4 0.08 0.43 0.43 92 1007.4
20260505234211 10 166 0.0 3.2 0.08 0.43 0.43 92 1007.3
20260505233711 10 189 1.6 3.2 0.05 0.41 0.41 92 1007.3
20260505233211 10 218 3.2 9.7 0.05 0.41 0.41 92 1007.4
20260505232711 10 188 1.6 6.4 0.05 0.41 0.41 92 1007.4
20260505232211 10 210 3.2 6.4 0.05 0.41 0.41 92 1007.3
20260505231711 10 222 1.6 4.8 0.05 0.41 0.41 92 1007.3
20260505231211 10 200 4.8 6.4 0.03 0.38 0.38 92 1007.3
20260505230731 10 189 1.6 3.2 0.03 0.38 0.38 92 1007.2
20260505230211 10 194 1.6 6.4 0.03 0.38 0.38 92 1007.2
20260505225711 10 192 3.2 4.8 0.03 0.38 0.38 92 1007.2
20260505225210 10 187 1.6 6.4 0.03 0.38 0.38 92 1007.2
20260505224710 10 188 3.2 6.4 0.00 0.36 0.36 92 1007.2
20260505224211 10 191 1.6 4.8 0.00 0.36 0.36 92 1007.2
20260505223731 10 207 1.6 3.2 0.00 0.36 0.36 91 1007.1
20260505223251 10 209 1.6 3.2 0.03 0.36 0.36 91 1007.0
20260505222711 10 209 1.6 3.2 0.03 0.36 0.36 92 1006.9
20260505222231 10 209 0.0 1.6 0.05 0.36 0.36 92 1007.0
20260505221711 10 210 1.6 3.2 0.05 0.36 0.36 92 1006.9
20260505221211 10 0.0 0.0 0.05 0.36 0.36 92 1006.9
20260505220710 10 0.0 0.0 0.05 0.36 0.36 92 1006.9
20260505220210 10 0.0 0.0 0.08 0.36 0.36 92 1006.8
20260505215710 10 211 0.0 1.6 0.08 0.36 0.36 92 1006.9
20260505215210 10 227 0.0 3.2 0.10 0.36 0.36 92 1006.8
20260505214711 10 0.0 0.0 0.10 0.36 0.36 91 1006.7
20260505214211 10 0.0 0.0 0.10 0.36 0.36 91 1006.7
20260505213710 10 0.0 0.0 0.10 0.36 0.36 91 1006.7
20260505213210 10 0.0 0.0 0.10 0.33 0.33 91 1006.7
20260505212711 10 322 0.0 1.6 0.10 0.33 0.33 91 1006.8
20260505212210 10 0.0 1.6 0.08 0.30 0.30 91 1006.8
20260505211711 10 0.0 0.0 0.10 0.30 0.30 91 1006.6
20260505211231 10 288 0.0 1.6 0.10 0.30 0.30 91 1006.7
20260505210711 10 281 1.6 3.2 0.10 0.30 0.30 91 1007.0
20260505210210 10 0.0 1.6 0.08 0.28 0.28 91 1007.3
20260505205731 10 245 1.6 3.2 0.10 0.28 0.28 91 1007.2
20260505205230 10 0.0 0.0 0.08 0.25 0.25 91 1007.3
20260505204711 10 0.0 1.6 0.08 0.25 0.25 91 1007.2
20260505204230 10 0.0 1.6 0.10 0.25 0.25 90 1007.2
20260505203711 10 237 3.2 4.8 0.10 0.25 0.25 90 1007.1
20260505203210 10 0.0 1.6 0.08 0.23 0.23 90 1007.2
20260505202710 10 0.0 1.6 0.10 0.23 0.23 90 1007.1
20260505202210 10 0.0 0.0 0.10 0.23 0.23 90 1007.1
20260505201710 10 224 0.0 3.2 0.10 0.20 0.20 90 1007.1
20260505201330 10 302 1.6 4.8 0.10 0.20 0.20 89 1007.2
20260505200710 10 313 1.6 3.2 0.13 0.20 0.20 89 1007.2
20260505200210 10 317 1.6 4.8 0.13 0.20 0.20 89 1007.3
20260505195710 10 310 1.6 4.8 0.13 0.18 0.18 88 1007.4
20260505195250 10 333 1.6 4.8 0.13 0.18 0.18 88 1007.2
20260505194810 10 317 1.6 3.2 0.15 0.18 0.18 89 1007.3
20260505194210 10 332 1.6 3.2 0.13 0.15 0.15 87 1007.6
20260505193710 11 321 3.2 6.4 0.13 0.15 0.15 87 1007.5
20260505193210 11 296 1.6 4.8 0.15 0.15 0.15 86 1007.6
20260505192730 11 275 0.0 1.6 0.13 0.13 0.13 86 1007.8
20260505192210 11 312 0.0 6.4 0.13 0.13 0.13 85 1007.7
20260505191710 11 308 0.0 3.2 0.10 0.10 0.10 84 1007.8
20260505191212 11 301 6.4 16.1 0.10 0.10 0.10 83 1007.6
20260505190712 12 316 1.6 4.8 0.08 0.08 0.08 83 1007.7
20260505190212 12 246 1.6 6.4 0.08 0.08 0.08 82 1007.7
20260505185712 12 0.0 0.0 0.05 0.05 0.05 81 1007.3
20260505185212 12 239 0.0 6.4 0.05 0.05 0.05 79 1007.1
20260505184712 12 335 0.0 1.6 0.03 0.03 0.03 77 1007.1
20260505184212 12 264 1.6 3.2 0.03 0.03 0.03 75 1007.2
20260505183712 13 327 4.8 6.4 0.03 0.03 0.03 73 1007.1
20260505183212 13 319 0.0 1.6 0.00 0.00 0.00 70 1007.4
20260505182732 13 284 1.6 3.2 0.00 0.00 0.00 67 1007.4
20260505182212 14 315 3.2 4.8 0.00 0.00 0.00 64 1007.4
20260505181712 14 2 3.2 8.0 0.00 0.00 0.00 62 1007.3
20260505181212 14 317 0.0 8.0 0.00 0.00 0.00 61 1007.1
20260505180712 14 271 3.2 14.5 0.00 0.00 0.00 59 1007.1